| time (UTC) | temp F | wind direction | speed MPH | gust MPH | rain 1hr in | rain 24hr in | rain mn in | humidity % | barometer mb |
| 20260506160650 | 52 | 18 | 3.0 | 9.0 | 0.00 | 0.28 | 0.00 | 73 | 1017.3 |
| 20260506160106 | 52 | 319 | 3.0 | 9.0 | 0.00 | 0.28 | 0.00 | 73 | 1017.6 |
| 20260506155554 | 52 | 341 | 3.0 | 9.0 | 0.00 | 0.28 | 0.00 | 72 | 1017.5 |
| 20260506155054 | 52 | 5 | 4.0 | 11.0 | 0.00 | 0.28 | 0.00 | 74 | 1017.4 |
| 20260506154552 | 52 | 342 | 2.0 | 11.0 | 0.00 | 0.28 | 0.00 | 76 | 1017.3 |
| 20260506154052 | 51 | 278 | 3.0 | 13.0 | 0.00 | 0.28 | 0.00 | 75 | 1017.2 |
| 20260506153552 | 51 | 40 | 4.0 | 13.0 | 0.00 | 0.28 | 0.00 | 75 | 1017.3 |
| 20260506153050 | 51 | 299 | 2.0 | 12.0 | 0.00 | 0.28 | 0.00 | 76 | 1017.4 |
| 20260506152550 | 52 | 338 | 1.0 | 12.0 | 0.00 | 0.28 | 0.00 | 77 | 1017.2 |
| 20260506152050 | 51 | 325 | 4.0 | 14.0 | 0.00 | 0.28 | 0.00 | 76 | 1017.0 |
| 20260506151549 | 52 | 297 | 4.0 | 14.0 | 0.00 | 0.28 | 0.00 | 80 | 1017.1 |
| 20260506151049 | 51 | 337 | 2.0 | 10.0 | 0.00 | 0.28 | 0.00 | 81 | 1017.0 |
| 20260506150649 | 51 | 312 | 3.0 | 13.0 | 0.00 | 0.28 | 0.00 | 79 | 1016.9 |
| 20260506150056 | 52 | 338 | 4.0 | 13.0 | 0.00 | 0.28 | 0.00 | 79 | 1016.8 |
| 20260506145555 | 52 | 334 | 6.0 | 13.0 | 0.00 | 0.28 | 0.00 | 80 | 1016.7 |
| 20260506145051 | 51 | 355 | 3.0 | 8.0 | 0.00 | 0.28 | 0.00 | 85 | 1016.7 |
| 20260506144553 | 50 | 290 | 3.0 | 8.0 | 0.00 | 0.28 | 0.00 | 85 | 1016.6 |
| 20260506144049 | 49 | 311 | 3.0 | 9.0 | 0.00 | 0.28 | 0.00 | 84 | 1016.7 |
| 20260506143551 | 49 | 301 | 3.0 | 13.0 | 0.00 | 0.28 | 0.00 | 86 | 1016.7 |
| 20260506143048 | 49 | 306 | 5.0 | 13.0 | 0.00 | 0.28 | 0.00 | 85 | 1016.7 |
| 20260506142548 | 49 | 355 | 4.0 | 10.0 | 0.00 | 0.28 | 0.00 | 87 | 1016.5 |
| 20260506142047 | 49 | 327 | 4.0 | 10.0 | 0.00 | 0.28 | 0.00 | 87 | 1016.5 |
| 20260506141546 | 49 | 31 | 4.0 | 10.0 | 0.00 | 0.28 | 0.00 | 90 | 1016.5 |
| 20260506141044 | 48 | 304 | 3.0 | 9.0 | 0.00 | 0.28 | 0.00 | 92 | 1016.5 |
| 20260506140643 | 48 | 297 | 2.0 | 8.0 | 0.00 | 0.28 | 0.00 | 92 | 1016.5 |
| 20260506140052 | 47 | 310 | 2.0 | 6.0 | 0.00 | 0.28 | 0.00 | 93 | 1016.6 |
| 20260506135550 | 46 | 316 | 2.0 | 6.0 | 0.00 | 0.28 | 0.00 | 93 | 1016.7 |
| 20260506135049 | 46 | 332 | 2.0 | 6.0 | 0.00 | 0.28 | 0.00 | 93 | 1016.8 |
| 20260506134612 | 46 | 355 | 1.0 | 5.0 | 0.00 | 0.28 | 0.00 | 94 | 1017.0 |
| 20260506134048 | 46 | 325 | 1.0 | 5.0 | 0.00 | 0.28 | 0.00 | 94 | 1017.1 |
| 20260506133545 | 46 | 355 | 2.0 | 4.0 | 0.00 | 0.28 | 0.00 | 94 | 1016.9 |
| 20260506133043 | 45 | 355 | 2.0 | 6.0 | 0.00 | 0.28 | 0.00 | 94 | 1016.8 |
| 20260506132542 | 45 | 311 | 2.0 | 4.0 | 0.00 | 0.28 | 0.00 | 94 | 1016.7 |
| 20260506132042 | 45 | 284 | 1.0 | 4.0 | 0.00 | 0.28 | 0.00 | 94 | 1016.8 |
| 20260506131600 | 45 | 326 | 1.0 | 4.0 | 0.00 | 0.28 | 0.00 | 94 | 1016.8 |
| 20260506131041 | 45 | 297 | 1.0 | 3.0 | 0.00 | 0.28 | 0.00 | 94 | 1016.9 |
| 20260506130641 | 45 | 331 | 1.0 | 6.0 | 0.00 | 0.28 | 0.00 | 94 | 1016.9 |
| 20260506130046 | 45 | 318 | 2.0 | 6.0 | 0.00 | 0.28 | 0.00 | 95 | 1016.9 |
| 20260506125544 | 45 | 311 | 1.0 | 7.0 | 0.00 | 0.28 | 0.00 | 95 | 1016.9 |
| 20260506125043 | 45 | 5 | 2.0 | 7.0 | 0.00 | 0.28 | 0.00 | 95 | 1017.0 |
| 20260506124543 | 44 | 343 | 1.0 | 6.0 | 0.00 | 0.28 | 0.00 | 95 | 1016.6 |
| 20260506124043 | 44 | 336 | 2.0 | 9.0 | 0.00 | 0.28 | 0.00 | 95 | 1016.9 |
| 20260506123541 | 44 | 286 | 2.0 | 9.0 | 0.00 | 0.28 | 0.00 | 95 | 1016.8 |
| 20260506123045 | 44 | 317 | 3.0 | 9.0 | 0.00 | 0.28 | 0.00 | 95 | 1016.8 |
| 20260506122540 | 44 | 298 | 2.0 | 8.0 | 0.00 | 0.28 | 0.00 | 95 | 1016.3 |
| 20260506122039 | 44 | 331 | 3.0 | 6.0 | 0.00 | 0.28 | 0.00 | 95 | 1016.1 |
| 20260506121549 | 44 | 341 | 2.0 | 4.0 | 0.00 | 0.28 | 0.00 | 95 | 1016.4 |
| 20260506121048 | 44 | 307 | 1.0 | 5.0 | 0.00 | 0.28 | 0.00 | 95 | 1016.4 |
| 20260506120648 | 44 | 329 | 2.0 | 5.0 | 0.00 | 0.28 | 0.00 | 95 | 1016.6 |
| 20260506120052 | 44 | 332 | 1.0 | 5.0 | 0.00 | 0.28 | 0.00 | 95 | 1016.7 |
| 20260506115552 | 44 | 285 | 2.0 | 6.0 | 0.00 | 0.28 | 0.00 | 95 | 1016.3 |
| 20260506115051 | 44 | 345 | 1.0 | 3.0 | 0.00 | 0.28 | 0.00 | 95 | 1015.8 |
| 20260506114554 | 44 | 346 | 1.0 | 4.0 | 0.00 | 0.28 | 0.00 | 95 | 1016.2 |
| 20260506114052 | 44 | 313 | 2.0 | 4.0 | 0.00 | 0.28 | 0.00 | 95 | 1016.5 |
| 20260506113550 | 44 | 308 | 1.0 | 4.0 | 0.00 | 0.28 | 0.00 | 95 | 1016.3 |
| 20260506113049 | 44 | 334 | 0.0 | 4.0 | 0.00 | 0.28 | 0.00 | 95 | 1016.2 |
| 20260506112547 | 44 | 329 | 1.0 | 3.0 | 0.00 | 0.28 | 0.00 | 95 | 1016.0 |
| 20260506112047 | 44 | 23 | 1.0 | 4.0 | 0.00 | 0.28 | 0.00 | 95 | 1015.5 |
| 20260506111602 | 44 | 303 | 1.0 | 4.0 | 0.00 | 0.28 | 0.00 | 95 | 1015.9 |
| 20260506111047 | 44 | 311 | 1.0 | 4.0 | 0.00 | 0.28 | 0.00 | 95 | 1015.9 |
| 20260506110650 | 44 | 323 | 1.0 | 6.0 | 0.00 | 0.28 | 0.00 | 95 | 1015.8 |
| 20260506110052 | 44 | 327 | 2.0 | 6.0 | 0.00 | 0.28 | 0.00 | 95 | 1015.7 |
| 20260506105550 | 44 | 37 | 1.0 | 2.0 | 0.00 | 0.38 | 0.00 | 95 | 1015.4 |
| 20260506105050 | 44 | 16 | 0.0 | 3.0 | 0.00 | 0.38 | 0.00 | 95 | 1015.6 |
| 20260506104550 | 44 | 19 | 1.0 | 4.0 | 0.00 | 0.38 | 0.00 | 95 | 1015.8 |
| 20260506104053 | 44 | 338 | 1.0 | 7.0 | 0.00 | 0.38 | 0.00 | 95 | 1015.9 |
| 20260506103548 | 44 | 323 | 0.0 | 8.0 | 0.00 | 0.38 | 0.00 | 95 | 1016.0 |
| 20260506103048 | 44 | 309 | 2.0 | 9.0 | 0.00 | 0.38 | 0.00 | 95 | 1016.4 |
| 20260506102550 | 44 | 302 | 3.0 | 9.0 | 0.00 | 0.38 | 0.00 | 95 | 1016.1 |
| 20260506102049 | 44 | 309 | 1.0 | 4.0 | 0.00 | 0.38 | 0.00 | 95 | 1015.6 |
| 20260506101545 | 44 | 291 | 1.0 | 5.0 | 0.00 | 0.38 | 0.00 | 95 | 1015.5 |
| 20260506101044 | 44 | 320 | 2.0 | 5.0 | 0.00 | 0.38 | 0.00 | 95 | 1015.4 |
| 20260506100643 | 44 | 282 | 1.0 | 3.0 | 0.00 | 0.38 | 0.00 | 95 | 1014.8 |
| 20260506100042 | 43 | 348 | 0.0 | 1.0 | 0.00 | 0.38 | 0.00 | 95 | 1014.4 |
| 20260506095542 | 43 | 5 | 0.0 | 2.0 | 0.00 | 0.38 | 0.00 | 95 | 1014.1 |
| 20260506095045 | 43 | 21 | 1.0 | 4.0 | 0.00 | 0.38 | 0.00 | 95 | 1013.9 |
| 20260506094542 | 43 | 309 | 1.0 | 4.0 | 0.00 | 0.38 | 0.00 | 95 | 1013.7 |
| 20260506094041 | 43 | 13 | 1.0 | 4.0 | 0.00 | 0.38 | 0.00 | 95 | 1013.7 |
| 20260506093542 | 43 | 313 | 0.0 | 4.0 | 0.00 | 0.38 | 0.00 | 95 | 1013.8 |
| 20260506093043 | 43 | 20 | 0.0 | 4.0 | 0.00 | 0.38 | 0.00 | 95 | 1013.5 |
| 20260506092540 | 43 | 355 | 1.0 | 4.0 | 0.00 | 0.38 | 0.00 | 95 | 1014.0 |
| 20260506092044 | 43 | 22 | 0.0 | 3.0 | 0.00 | 0.38 | 0.00 | 95 | 1014.0 |
| 20260506091541 | 43 | 306 | 1.0 | 5.0 | 0.00 | 0.38 | 0.00 | 95 | 1014.3 |
| 20260506091040 | 43 | 317 | 2.0 | 5.0 | 0.00 | 0.38 | 0.00 | 95 | 1014.1 |
| 20260506090501 | 43 | 15 | 1.0 | 4.0 | 0.00 | 0.38 | 0.00 | 95 | 1013.9 |
| 20260506090100 | 43 | 360 | 0.0 | 4.0 | 0.00 | 0.38 | 0.00 | 95 | 1014.0 |
| 20260506085600 | 43 | 23 | 0.0 | 1.0 | 0.00 | 0.38 | 0.00 | 95 | 1014.0 |
| 20260506085059 | 43 | 76 | 0.0 | 3.0 | 0.00 | 0.38 | 0.00 | 95 | 1013.9 |
| 20260506084606 | 43 | 333 | 0.0 | 4.0 | 0.00 | 0.38 | 0.00 | 95 | 1014.0 |
| 20260506084059 | 43 | 309 | 1.0 | 6.0 | 0.00 | 0.38 | 0.00 | 95 | 1014.0 |
| 20260506083600 | 43 | 24 | 2.0 | 6.0 | 0.00 | 0.38 | 0.00 | 95 | 1014.0 |
| 20260506083115 | 43 | 5 | 2.0 | 6.0 | 0.00 | 0.38 | 0.00 | 95 | 1014.3 |
| 20260506082557 | 43 | 331 | 2.0 | 8.0 | 0.00 | 0.38 | 0.00 | 95 | 1014.6 |
| 20260506082057 | 43 | 344 | 3.0 | 8.0 | 0.00 | 0.38 | 0.00 | 95 | 1014.4 |
| 20260506081554 | 43 | 325 | 1.0 | 6.0 | 0.00 | 0.38 | 0.00 | 95 | 1014.4 |
| 20260506081054 | 43 | 344 | 1.0 | 6.0 | 0.00 | 0.38 | 0.00 | 95 | 1014.3 |
| 20260506080654 | 43 | 335 | 1.0 | 5.0 | 0.00 | 0.38 | 0.00 | 95 | 1014.3 |
| 20260506073052 | 43 | 313 | 3.0 | 6.0 | 0.00 | 0.38 | 0.00 | 95 | 1013.7 |
| 20260506072552 | 43 | 336 | 2.0 | 8.0 | 0.00 | 0.38 | 0.00 | 95 | 1013.7 |
| 20260506072051 | 43 | 317 | 2.0 | 8.0 | 0.00 | 0.38 | 0.00 | 95 | 1013.5 |
| 20260506071553 | 43 | 327 | 3.0 | 9.0 | 0.00 | 0.38 | 0.00 | 95 | 1013.8 |
| 20260506071049 | 43 | 327 | 2.0 | 9.0 | 0.00 | 0.38 | 0.00 | 95 | 1013.7 |
| 20260506070651 | 43 | 301 | 2.0 | 8.0 | 0.00 | 0.38 | 0.00 | 95 | 1013.7 |
| 20260506070110 | 43 | 324 | 2.0 | 8.0 | 0.00 | 0.38 | 0.00 | 95 | 1014.0 |
| 20260506062050 | 43 | 301 | 1.0 | 4.0 | 0.00 | 0.38 | 0.00 | 95 | 1014.3 |
| 20260506061546 | 43 | 290 | 0.0 | 4.0 | 0.00 | 0.38 | 0.00 | 95 | 1013.9 |
| 20260506061046 | 43 | 306 | 1.0 | 4.0 | 0.00 | 0.38 | 0.00 | 95 | 1013.6 |
| 20260506060646 | 43 | 313 | 0.0 | 6.0 | 0.00 | 0.38 | 0.00 | 95 | 1013.3 |
| 20260506051042 | 43 | 15 | 1.0 | 3.0 | 0.02 | 0.38 | 0.00 | 95 | 1013.4 |
| 20260506050641 | 43 | 46 | 0.0 | 4.0 | 0.02 | 0.38 | 0.00 | 95 | 1013.6 |
| 20260506045040 | 43 | 327 | 2.0 | 5.0 | 0.02 | 0.38 | 0.38 | 94 | 1013.0 |
| 20260506044540 | 43 | 340 | 2.0 | 5.0 | 0.01 | 0.37 | 0.37 | 94 | 1013.4 |
| 20260506044039 | 43 | 34 | 2.0 | 10.0 | 0.01 | 0.37 | 0.37 | 94 | 1013.4 |
| 20260506043542 | 43 | 346 | 2.0 | 8.0 | 0.00 | 0.36 | 0.36 | 94 | 1013.2 |
| 20260506043038 | 43 | 355 | 2.0 | 6.0 | 0.00 | 0.36 | 0.36 | 94 | 1013.1 |
| 20260506042537 | 43 | 13 | 1.0 | 9.0 | 0.00 | 0.36 | 0.36 | 94 | 1012.8 |
| 20260506042037 | 42 | 360 | 1.0 | 9.0 | 0.00 | 0.36 | 0.36 | 94 | 1012.6 |
| 20260506041539 | 42 | 65 | 2.0 | 9.0 | 0.00 | 0.36 | 0.36 | 94 | 1012.8 |
| 20260506041036 | 42 | 351 | 2.0 | 6.0 | 0.00 | 0.36 | 0.36 | 94 | 1012.6 |
| 20260506040637 | 42 | 333 | 2.0 | 6.0 | 0.00 | 0.36 | 0.36 | 94 | 1012.7 |
| 20260506040040 | 42 | 355 | 2.0 | 9.0 | 0.00 | 0.36 | 0.36 | 94 | 1012.7 |
| 20260506035542 | 42 | 70 | 2.0 | 10.0 | 0.00 | 0.36 | 0.36 | 94 | 1012.9 |
| 20260506035040 | 43 | 348 | 3.0 | 10.0 | 0.00 | 0.36 | 0.36 | 94 | 1013.0 |
| 20260506034541 | 42 | 322 | 3.0 | 8.0 | 0.00 | 0.36 | 0.36 | 94 | 1013.2 |
| 20260506034040 | 42 | 49 | 1.0 | 10.0 | 0.01 | 0.36 | 0.36 | 94 | 1013.0 |
| 20260506033539 | 42 | 334 | 2.0 | 10.0 | 0.02 | 0.36 | 0.36 | 94 | 1013.1 |
| 20260506033039 | 42 | 9 | 4.0 | 13.0 | 0.02 | 0.36 | 0.36 | 94 | 1013.1 |
| 20260506032538 | 42 | 41 | 5.0 | 13.0 | 0.03 | 0.36 | 0.36 | 94 | 1012.4 |
| 20260506032038 | 42 | 11 | 4.0 | 9.0 | 0.03 | 0.36 | 0.36 | 94 | 1013.1 |
| 20260506031540 | 42 | 306 | 4.0 | 10.0 | 0.04 | 0.36 | 0.36 | 94 | 1012.7 |
| 20260506031038 | 42 | 290 | 4.0 | 12.0 | 0.04 | 0.36 | 0.36 | 94 | 1013.2 |
| 20260506030503 | 42 | 69 | 4.0 | 12.0 | 0.04 | 0.36 | 0.36 | 94 | 1013.0 |
| 20260506030003 | 42 | 5 | 6.0 | 13.0 | 0.04 | 0.36 | 0.36 | 94 | 1013.0 |
| 20260506025502 | 42 | 335 | 4.0 | 13.0 | 0.04 | 0.36 | 0.36 | 94 | 1012.6 |
| 20260506025100 | 42 | 325 | 6.0 | 11.0 | 0.05 | 0.36 | 0.36 | 94 | 1012.4 |
| 20260506024606 | 42 | 331 | 4.0 | 11.0 | 0.05 | 0.36 | 0.36 | 94 | 1012.3 |
| 20260506024059 | 42 | 313 | 4.0 | 11.0 | 0.05 | 0.35 | 0.35 | 94 | 1012.5 |
| 20260506023558 | 42 | 344 | 3.0 | 13.0 | 0.05 | 0.34 | 0.34 | 94 | 1012.1 |
| 20260506023056 | 43 | 10 | 6.0 | 14.0 | 0.05 | 0.34 | 0.34 | 94 | 1011.9 |
| 20260506022555 | 43 | 355 | 7.0 | 14.0 | 0.05 | 0.33 | 0.33 | 94 | 1012.1 |
| 20260506022055 | 43 | 336 | 4.0 | 12.0 | 0.05 | 0.33 | 0.33 | 94 | 1012.2 |
| 20260506021554 | 43 | 23 | 4.0 | 14.0 | 0.05 | 0.32 | 0.32 | 94 | 1012.1 |
| 20260506021056 | 43 | 5 | 5.0 | 14.0 | 0.07 | 0.32 | 0.32 | 95 | 1012.0 |
| 20260506020653 | 43 | 315 | 3.0 | 9.0 | 0.08 | 0.32 | 0.32 | 95 | 1011.7 |
| 20260506020109 | 43 | 26 | 3.0 | 8.0 | 0.09 | 0.32 | 0.32 | 95 | 1011.9 |
| 20260506015556 | 43 | 336 | 1.0 | 8.0 | 0.09 | 0.32 | 0.32 | 94 | 1011.8 |
| 20260506015056 | 43 | 355 | 2.0 | 8.0 | 0.08 | 0.31 | 0.31 | 94 | 1011.8 |
| 20260506014611 | 43 | 333 | 2.0 | 10.0 | 0.09 | 0.31 | 0.31 | 94 | 1011.6 |
| 20260506014055 | 43 | 309 | 3.0 | 10.0 | 0.09 | 0.30 | 0.30 | 94 | 1011.6 |
| 20260506013555 | 43 | 16 | 2.0 | 7.0 | 0.10 | 0.28 | 0.28 | 94 | 1011.6 |
| 20260506013051 | 43 | 67 | 3.0 | 11.0 | 0.10 | 0.28 | 0.28 | 94 | 1011.4 |
| 20260506012550 | 43 | 11 | 4.0 | 10.0 | 0.09 | 0.28 | 0.28 | 94 | 1011.4 |
| 20260506012051 | 43 | 30 | 1.0 | 8.0 | 0.10 | 0.28 | 0.28 | 94 | 1011.7 |
| 20260506011612 | 43 | 303 | 3.0 | 13.0 | 0.09 | 0.27 | 0.27 | 94 | 1011.8 |
| 20260506011048 | 43 | 33 | 3.0 | 13.0 | 0.08 | 0.25 | 0.25 | 94 | 1011.0 |
| 20260506010647 | 43 | 24 | 4.0 | 13.0 | 0.08 | 0.24 | 0.24 | 94 | 1011.1 |
| 20260506010052 | 43 | 26 | 5.0 | 13.0 | 0.07 | 0.23 | 0.23 | 94 | 1010.8 |
| 20260506005552 | 43 | 5 | 4.0 | 17.0 | 0.07 | 0.23 | 0.23 | 94 | 1010.8 |
| 20260506005051 | 43 | 350 | 5.0 | 17.0 | 0.07 | 0.23 | 0.23 | 94 | 1010.7 |
| 20260506004601 | 44 | 5 | 5.0 | 12.0 | 0.06 | 0.22 | 0.22 | 94 | 1010.8 |
| 20260506004049 | 44 | 15 | 3.0 | 10.0 | 0.06 | 0.21 | 0.21 | 94 | 1010.9 |
| 20260506003548 | 44 | 303 | 4.0 | 10.0 | 0.04 | 0.19 | 0.19 | 94 | 1010.7 |
| 20260506003047 | 44 | 360 | 5.0 | 15.0 | 0.04 | 0.19 | 0.19 | 94 | 1010.3 |
| 20260506002545 | 44 | 36 | 5.0 | 15.0 | 0.04 | 0.19 | 0.19 | 94 | 1010.3 |
| 20260506002045 | 44 | 325 | 2.0 | 10.0 | 0.03 | 0.18 | 0.18 | 94 | 1010.4 |
| 20260506001546 | 44 | 360 | 2.0 | 9.0 | 0.03 | 0.18 | 0.18 | 94 | 1010.3 |
| 20260506001044 | 44 | 341 | 3.0 | 10.0 | 0.03 | 0.17 | 0.17 | 94 | 1010.4 |
| 20260506000644 | 44 | 65 | 3.0 | 10.0 | 0.02 | 0.16 | 0.16 | 94 | 1010.1 |
| 20260506000114 | 44 | 5 | 3.0 | 9.0 | 0.03 | 0.16 | 0.16 | 94 | 1010.3 |
| 20260505235552 | 44 | 21 | 1.0 | 11.0 | 0.04 | 0.16 | 0.16 | 94 | 1010.6 |
| 20260505235047 | 44 | 329 | 4.0 | 11.0 | 0.05 | 0.16 | 0.16 | 94 | 1010.4 |
| 20260505234552 | 44 | 320 | 2.0 | 12.0 | 0.06 | 0.16 | 0.16 | 94 | 1010.5 |
| 20260505234046 | 44 | 325 | 3.0 | 11.0 | 0.05 | 0.15 | 0.15 | 93 | 1010.5 |
| 20260505233545 | 44 | 5 | 3.0 | 8.0 | 0.05 | 0.15 | 0.15 | 93 | 1010.4 |
| 20260505233044 | 44 | 34 | 4.0 | 7.0 | 0.05 | 0.15 | 0.15 | 93 | 1010.2 |
| 20260505232545 | 44 | 26 | 3.0 | 8.0 | 0.05 | 0.15 | 0.15 | 93 | 1009.7 |
| 20260505232046 | 44 | 355 | 3.0 | 6.0 | 0.05 | 0.15 | 0.15 | 93 | 1010.2 |
| 20260505231542 | 44 | 294 | 2.0 | 9.0 | 0.05 | 0.15 | 0.15 | 93 | 1009.7 |
| 20260505231045 | 44 | 327 | 3.0 | 9.0 | 0.04 | 0.14 | 0.14 | 92 | 1009.7 |
| 20260505230643 | 44 | 9 | 2.0 | 10.0 | 0.04 | 0.14 | 0.14 | 92 | 1009.5 |
| 20260505230104 | 44 | 5 | 3.0 | 10.0 | 0.03 | 0.13 | 0.13 | 92 | 1009.8 |
| 20260505225551 | 44 | 348 | 3.0 | 12.0 | 0.02 | 0.12 | 0.12 | 91 | 1009.8 |
| 20260505225050 | 45 | 19 | 4.0 | 12.0 | 0.01 | 0.11 | 0.11 | 90 | 1009.8 |
| 20260505224549 | 45 | 360 | 4.0 | 10.0 | 0.00 | 0.10 | 0.10 | 90 | 1009.8 |
| 20260505224047 | 45 | 308 | 2.0 | 10.0 | 0.00 | 0.10 | 0.10 | 90 | 1009.5 |
| 20260505223551 | 46 | 5 | 4.0 | 12.0 | 0.00 | 0.10 | 0.10 | 90 | 1009.8 |
| 20260505223047 | 46 | 321 | 4.0 | 13.0 | 0.00 | 0.10 | 0.10 | 89 | 1009.7 |
| 20260505222545 | 46 | 355 | 6.0 | 13.0 | 0.00 | 0.10 | 0.10 | 89 | 1009.3 |
| 20260505222044 | 46 | 55 | 3.0 | 13.0 | 0.00 | 0.10 | 0.10 | 89 | 1009.0 |
| 20260505221549 | 46 | 355 | 3.0 | 10.0 | 0.00 | 0.10 | 0.10 | 88 | 1009.0 |
| 20260505221041 | 47 | 309 | 2.0 | 9.0 | 0.00 | 0.10 | 0.10 | 87 | 1009.1 |
| 20260505220644 | 47 | 327 | 3.0 | 9.0 | 0.00 | 0.10 | 0.10 | 87 | 1009.0 |
| 20260505220044 | 47 | 346 | 3.0 | 13.0 | 0.00 | 0.10 | 0.10 | 85 | 1009.2 |
| 20260505215543 | 47 | 355 | 7.0 | 13.0 | 0.00 | 0.10 | 0.10 | 85 | 1009.2 |
| 20260505215042 | 48 | 40 | 5.0 | 11.0 | 0.00 | 0.10 | 0.10 | 85 | 1008.9 |
| 20260505214543 | 47 | 28 | 4.0 | 10.0 | 0.00 | 0.10 | 0.10 | 86 | 1009.0 |
| 20260505214047 | 47 | 11 | 3.0 | 11.0 | 0.00 | 0.10 | 0.10 | 86 | 1009.0 |
| 20260505213541 | 47 | 39 | 5.0 | 12.0 | 0.00 | 0.10 | 0.10 | 85 | 1009.2 |
| 20260505213041 | 47 | 329 | 3.0 | 15.0 | 0.00 | 0.10 | 0.10 | 86 | 1009.3 |
| 20260505212540 | 48 | 36 | 6.0 | 15.0 | 0.00 | 0.10 | 0.10 | 86 | 1009.0 |
| 20260505212041 | 48 | 288 | 8.0 | 15.0 | 0.00 | 0.10 | 0.10 | 85 | 1009.0 |
| 20260505211541 | 48 | 350 | 4.0 | 15.0 | 0.00 | 0.10 | 0.10 | 86 | 1008.8 |
| 20260505211037 | 48 | 355 | 6.0 | 12.0 | 0.00 | 0.10 | 0.10 | 86 | 1008.7 |
| 20260505210636 | 49 | 334 | 7.0 | 12.0 | 0.00 | 0.10 | 0.10 | 86 | 1008.8 |
| 20260505210059 | 49 | 5 | 4.0 | 16.0 | 0.00 | 0.10 | 0.10 | 85 | 1009.1 |
| 20260505205558 | 49 | 9 | 4.0 | 16.0 | 0.00 | 0.10 | 0.10 | 85 | 1009.3 |
| 20260505205058 | 49 | 170 | 3.0 | 12.0 | 0.00 | 0.10 | 0.10 | 85 | 1009.4 |
| 20260505204601 | 49 | 331 | 1.0 | 10.0 | 0.00 | 0.10 | 0.10 | 85 | 1009.2 |
| 20260505204056 | 49 | 11 | 5.0 | 13.0 | 0.00 | 0.10 | 0.10 | 84 | 1009.1 |
| 20260505203556 | 50 | 328 | 4.0 | 15.0 | 0.00 | 0.10 | 0.10 | 84 | 1008.9 |
| 20260505203101 | 50 | 11 | 4.0 | 15.0 | 0.00 | 0.10 | 0.10 | 84 | 1008.9 |
| 20260505202554 | 50 | 34 | 4.0 | 17.0 | 0.00 | 0.10 | 0.10 | 84 | 1008.9 |
| 20260505202054 | 50 | 101 | 6.0 | 17.0 | 0.00 | 0.10 | 0.10 | 84 | 1008.9 |
| 20260505201553 | 50 | 39 | 4.0 | 15.0 | 0.00 | 0.10 | 0.10 | 84 | 1008.9 |
| 20260505201052 | 50 | 24 | 7.0 | 14.0 | 0.00 | 0.10 | 0.10 | 85 | 1009.0 |
| 20260505200654 | 50 | 345 | 3.0 | 10.0 | 0.00 | 0.10 | 0.10 | 86 | 1008.9 |
| 20260505200052 | 50 | 350 | 4.0 | 8.0 | 0.00 | 0.10 | 0.10 | 85 | 1008.9 |
| 20260505195552 | 50 | 5 | 2.0 | 11.0 | 0.00 | 0.10 | 0.10 | 85 | 1009.2 |
| 20260505195052 | 50 | 329 | 5.0 | 13.0 | 0.00 | 0.10 | 0.10 | 85 | 1009.2 |
| 20260505194606 | 50 | 355 | 6.0 | 14.0 | 0.00 | 0.10 | 0.10 | 84 | 1009.3 |
| 20260505194052 | 50 | 360 | 5.0 | 14.0 | 0.00 | 0.10 | 0.10 | 84 | 1009.2 |
| 20260505193551 | 50 | 355 | 5.0 | 21.0 | 0.00 | 0.10 | 0.10 | 84 | 1009.0 |
| 20260505193050 | 50 | 9 | 10.0 | 21.0 | 0.00 | 0.10 | 0.10 | 85 | 1009.2 |
| 20260505192550 | 50 | 355 | 8.0 | 16.0 | 0.00 | 0.10 | 0.10 | 86 | 1009.4 |
| 20260505192050 | 50 | 348 | 4.0 | 14.0 | 0.00 | 0.10 | 0.10 | 89 | 1009.6 |
| 20260505191603 | 50 | 50 | 6.0 | 14.0 | 0.00 | 0.10 | 0.10 | 89 | 1009.7 |
| 20260505191050 | 50 | 355 | 5.0 | 11.0 | 0.00 | 0.10 | 0.10 | 90 | 1009.6 |
| 20260505190649 | 50 | 17 | 4.0 | 12.0 | 0.00 | 0.10 | 0.10 | 91 | 1009.5 |
| 20260505190051 | 50 | 347 | 4.0 | 13.0 | 0.00 | 0.10 | 0.10 | 91 | 1009.6 |
| 20260505185549 | 51 | 351 | 2.0 | 10.0 | 0.00 | 0.10 | 0.10 | 91 | 1009.8 |
| 20260505185049 | 51 | 24 | 3.0 | 11.0 | 0.00 | 0.10 | 0.10 | 91 | 1009.7 |
| 20260505184548 | 51 | 15 | 3.0 | 12.0 | 0.00 | 0.10 | 0.10 | 91 | 1009.3 |
| 20260505184048 | 51 | 17 | 2.0 | 12.0 | 0.00 | 0.10 | 0.10 | 91 | 1009.1 |
| 20260505183549 | 51 | 5 | 4.0 | 12.0 | 0.00 | 0.10 | 0.10 | 90 | 1009.0 |
| 20260505183046 | 51 | 34 | 2.0 | 15.0 | 0.00 | 0.10 | 0.10 | 91 | 1009.0 |
| 20260505182545 | 51 | 360 | 6.0 | 15.0 | 0.00 | 0.10 | 0.10 | 91 | 1008.9 |
| 20260505182049 | 51 | 5 | 5.0 | 10.0 | 0.00 | 0.10 | 0.10 | 91 | 1008.8 |
| 20260505181545 | 51 | 16 | 3.0 | 11.0 | 0.00 | 0.10 | 0.10 | 91 | 1008.8 |
| 20260505181046 | 51 | 87 | 2.0 | 11.0 | 0.00 | 0.10 | 0.10 | 91 | 1008.7 |
| 20260505180644 | 51 | 355 | 4.0 | 11.0 | 0.00 | 0.10 | 0.10 | 91 | 1008.7 |
| 20260505180054 | 51 | 12 | 3.0 | 10.0 | 0.00 | 0.10 | 0.10 | 91 | 1008.7 |
| 20260505175546 | 51 | 5 | 3.0 | 13.0 | 0.00 | 0.10 | 0.10 | 90 | 1008.7 |
| 20260505175045 | 51 | 11 | 4.0 | 13.0 | 0.00 | 0.10 | 0.10 | 89 | 1008.7 |
| 20260505174545 | 52 | 53 | 3.0 | 11.0 | 0.00 | 0.10 | 0.10 | 88 | 1008.9 |
| 20260505174045 | 52 | 34 | 2.0 | 11.0 | 0.00 | 0.10 | 0.10 | 88 | 1009.0 |
| 20260505173544 | 52 | 13 | 4.0 | 11.0 | 0.00 | 0.10 | 0.10 | 88 | 1009.1 |
| 20260505173048 | 52 | 278 | 4.0 | 12.0 | 0.00 | 0.10 | 0.10 | 87 | 1009.1 |
| 20260505172543 | 52 | 49 | 4.0 | 12.0 | 0.00 | 0.10 | 0.10 | 88 | 1009.7 |
| 20260505172042 | 52 | 360 | 3.0 | 10.0 | 0.00 | 0.10 | 0.10 | 88 | 1009.6 |
| 20260505171547 | 52 | 26 | 5.0 | 10.0 | 0.00 | 0.10 | 0.10 | 88 | 1009.5 |
| 20260505171042 | 52 | 310 | 1.0 | 12.0 | 0.00 | 0.10 | 0.10 | 89 | 1009.3 |
| 20260505170642 | 52 | 49 | 2.0 | 12.0 | 0.00 | 0.10 | 0.10 | 89 | 1009.6 |
| 20260505170041 | 52 | 327 | 4.0 | 10.0 | 0.00 | 0.10 | 0.10 | 89 | 1009.5 |
| 20260505165540 | 52 | 26 | 4.0 | 11.0 | 0.00 | 0.10 | 0.10 | 89 | 1009.3 |
| 20260505165039 | 52 | 323 | 4.0 | 11.0 | 0.00 | 0.10 | 0.10 | 89 | 1009.0 |
| 20260505164539 | 52 | 17 | 5.0 | 10.0 | 0.00 | 0.10 | 0.10 | 89 | 1008.8 |
| 20260505164039 | 52 | 32 | 2.0 | 10.0 | 0.00 | 0.10 | 0.10 | 89 | 1008.7 |
| 20260505163539 | 52 | 355 | 3.0 | 11.0 | 0.00 | 0.10 | 0.10 | 88 | 1008.5 |
| 20260505163037 | 53 | 360 | 4.0 | 13.0 | 0.00 | 0.10 | 0.10 | 88 | 1008.4 |
| 20260505162538 | 53 | 69 | 3.0 | 13.0 | 0.00 | 0.10 | 0.10 | 89 | 1008.2 |
| 20260505162036 | 52 | 19 | 5.0 | 10.0 | 0.00 | 0.10 | 0.10 | 88 | 1007.8 |
| 20260505161535 | 52 | 186 | 0.0 | 10.0 | 0.00 | 0.10 | 0.10 | 90 | 1008.0 |
| 20260505161037 | 52 | 333 | 2.0 | 12.0 | 0.00 | 0.10 | 0.10 | 89 | 1008.1 |